Météo par heure à Alkaladka

Ce jour, 26 Octobre, Lundi

Heure Température Précipitation Vent Pression Humidité
00:00 +5°C° 0 mm 3 m/s 753 mmHg 93%
01:00 +5°C° 0 mm 3 m/s 753 mmHg 93%
02:00 +6°C° 0 mm 2 m/s 754 mmHg 93%
03:00 +5°C° 0 mm 2 m/s 754 mmHg 94%
04:00 +5°C° 0 mm 2 m/s 754 mmHg 94%
05:00 +5°C° 0 mm 2 m/s 754 mmHg 94%
06:00 +5°C° 0 mm 2 m/s 755 mmHg 94%
07:00 +6°C° 0 mm 2 m/s 755 mmHg 91%
08:00 +7°C° 0 mm 2 m/s 755 mmHg 87%
09:00 +7°C° 0 mm 2 m/s 755 mmHg 84%
10:00 +9°C° 0 mm 2 m/s 755 mmHg 77%
11:00 +10°C° 0 mm 3 m/s 755 mmHg 69%
12:00 +12°C° 0 mm 3 m/s 756 mmHg 62%
13:00 +12°C° 0 mm 3 m/s 756 mmHg 60%
14:00 +12°C° 0 mm 3 m/s 756 mmHg 59%
15:00 +12°C° 0 mm 3 m/s 756 mmHg 57%
16:00 +12°C° 0 mm 2 m/s 756 mmHg 63%
17:00 +10°C° 0 mm 2 m/s 756 mmHg 69%
18:00 +9°C° 0 mm 2 m/s 756 mmHg 75%
19:00 +8°C° 0 mm 2 m/s 756 mmHg 78%
20:00 +8°C° 0 mm 2 m/s 757 mmHg 82%
21:00 +7°C° 0 mm 2 m/s 757 mmHg 85%
22:00 +7°C° 0 mm 2 m/s 757 mmHg 87%
23:00 +6°C° 0 mm 2 m/s 757 mmHg 89%

Demain, 27 Octobre, Mardi

Heure Température Précipitation Vent Pression Humidité
00:00 +6°C° 0 mm 2 m/s 758 mmHg 91%
01:00 +5°C° 0 mm 2 m/s 758 mmHg 91%
02:00 +5°C° 0 mm 2 m/s 758 mmHg 91%
03:00 +4°C° 0 mm 2 m/s 758 mmHg 91%
04:00 +4°C° 0 mm 2 m/s 759 mmHg 91%
05:00 +4°C° 0 mm 2 m/s 759 mmHg 90%
06:00 +3°C° 0 mm 2 m/s 759 mmHg 90%
07:00 +4°C° 0 mm 2 m/s 760 mmHg 86%
08:00 +3°C° 0 mm 3 m/s 760 mmHg 82%
09:00 +4°C° 0 mm 3 m/s 760 mmHg 79%
10:00 +5°C° 0 mm 3 m/s 760 mmHg 72%
11:00 +8°C° 0 mm 3 m/s 761 mmHg 65%
12:00 +9°C° 0 mm 2 m/s 761 mmHg 59%
13:00 +9°C° 0 mm 2 m/s 761 mmHg 56%
14:00 +9°C° 0 mm 2 m/s 760 mmHg 53%
15:00 +10°C° 0 mm 2 m/s 760 mmHg 50%
16:00 +9°C° 0 mm 3 m/s 761 mmHg 54%
17:00 +7°C° 0 mm 3 m/s 761 mmHg 57%
18:00 +5°C° 0 mm 3 m/s 761 mmHg 61%
19:00 +5°C° 0 mm 3 m/s 761 mmHg 62%
20:00 +4°C° 0 mm 3 m/s 761 mmHg 64%
21:00 +4°C° 0 mm 3 m/s 761 mmHg 65%
22:00 +3°C° 0 mm 3 m/s 762 mmHg 65%
23:00 +3°C° 0 mm 3 m/s 762 mmHg 65%

Après-demain, 28 Octobre, Mercredi

Heure Température Précipitation Vent Pression Humidité
00:00 +2°C° 0 mm 3 m/s 762 mmHg 65%
01:00 +2°C° 0 mm 3 m/s 762 mmHg 66%
02:00 +1°C° 0 mm 3 m/s 762 mmHg 67%
03:00 +1°C° 0 mm 3 m/s 762 mmHg 67%
04:00 +1°C° 0 mm 3 m/s 762 mmHg 67%
05:00 0°C° 0 mm 3 m/s 762 mmHg 67%
06:00 0°C° 0 mm 3 m/s 762 mmHg 67%
07:00 +1°C° 0 mm 3 m/s 763 mmHg 62%
08:00 0°C° 0 mm 4 m/s 763 mmHg 57%
09:00 +1°C° 0 mm 4 m/s 763 mmHg 52%
10:00 +3°C° 0 mm 4 m/s 763 mmHg 47%
11:00 +5°C° 0 mm 4 m/s 763 mmHg 42%
12:00 +6°C° 0 mm 4 m/s 763 mmHg 37%
13:00 +7°C° 0 mm 4 m/s 763 mmHg 35%
14:00 +7°C° 0 mm 4 m/s 762 mmHg 33%
15:00 +8°C° 0 mm 4 m/s 762 mmHg 31%
16:00 +6°C° 0 mm 4 m/s 762 mmHg 34%
17:00 +5°C° 0 mm 4 m/s 762 mmHg 38%
18:00 +4°C° 0 mm 3 m/s 762 mmHg 41%
19:00 +3°C° 0 mm 4 m/s 762 mmHg 43%
20:00 +3°C° 0 mm 4 m/s 762 mmHg 45%
21:00 +1°C° 0 mm 4 m/s 762 mmHg 47%
22:00 +1°C° 0 mm 4 m/s 762 mmHg 50%
23:00 0°C° 0 mm 4 m/s 762 mmHg 52%

29 Octobre, Jeudi

Heure Température Précipitation Vent Pression Humidité
00:00 +1°C° 0 mm 3 m/s 762 mmHg 55%
01:00 0°C° 0 mm 3 m/s 762 mmHg 57%
02:00 0°C° 0 mm 3 m/s 762 mmHg 59%
03:00 0°C° 0 mm 3 m/s 762 mmHg 61%
04:00 0°C° 0 mm 3 m/s 762 mmHg 63%
05:00 -2°C° 0 mm 4 m/s 762 mmHg 65%
06:00 -2°C° 0 mm 4 m/s 762 mmHg 68%
07:00 -1°C° 0 mm 4 m/s 762 mmHg 64%
08:00 0°C° 0 mm 5 m/s 762 mmHg 60%
09:00 +1°C° 0 mm 5 m/s 762 mmHg 56%
10:00 +3°C° 0 mm 6 m/s 761 mmHg 50%
11:00 +4°C° 0 mm 6 m/s 761 mmHg 44%
12:00 +7°C° 0 mm 6 m/s 761 mmHg 39%
13:00 +8°C° 0 mm 6 m/s 761 mmHg 37%
14:00 +8°C° 0 mm 6 m/s 760 mmHg 36%
15:00 +9°C° 0 mm 6 m/s 760 mmHg 34%
16:00 +8°C° 0 mm 6 m/s 760 mmHg 36%
17:00 +7°C° 0 mm 6 m/s 759 mmHg 37%
18:00 +5°C° 0 mm 6 m/s 759 mmHg 39%
19:00 +5°C° 0 mm 6 m/s 759 mmHg 40%
20:00 +4°C° 0 mm 6 m/s 759 mmHg 41%
21:00 +4°C° 0 mm 6 m/s 759 mmHg 42%
22:00 +5°C° 0 mm 5 m/s 759 mmHg 43%
23:00 +5°C° 0 mm 5 m/s 759 mmHg 45%

30 Octobre, Vendredi

Heure Température Précipitation Vent Pression Humidité
00:00 +5°C° 0 mm 5 m/s 759 mmHg 46%
01:00 +5°C° 0 mm 4 m/s 759 mmHg 48%
02:00 +4°C° 0 mm 4 m/s 758 mmHg 50%
03:00 +4°C° 0 mm 4 m/s 758 mmHg 52%
04:00 +4°C° 0 mm 4 m/s 758 mmHg 55%
05:00 +4°C° 0 mm 4 m/s 758 mmHg 58%
06:00 +3°C° 0 mm 4 m/s 758 mmHg 62%
07:00 +3°C° 0 mm 5 m/s 758 mmHg 62%
08:00 +3°C° 0 mm 5 m/s 757 mmHg 63%
09:00 +3°C° 0 mm 5 m/s 757 mmHg 64%
10:00 +5°C° 0 mm 5 m/s 757 mmHg 61%
11:00 +6°C° 0 mm 5 m/s 757 mmHg 59%
12:00 +7°C° 0 mm 5 m/s 757 mmHg 57%
13:00 +8°C° 0 mm 4 m/s 756 mmHg 57%
14:00 +8°C° 0 mm 4 m/s 756 mmHg 56%
15:00 +10°C° 0 mm 4 m/s 756 mmHg 56%
16:00 +9°C° 0 mm 3 m/s 756 mmHg 58%
17:00 +9°C° 0 mm 3 m/s 756 mmHg 60%
18:00 +9°C° 0 mm 3 m/s 756 mmHg 62%
19:00 +9°C° 0 mm 3 m/s 756 mmHg 65%
20:00 +9°C° 0 mm 3 m/s 756 mmHg 69%
21:00 +7°C° 0 mm 4 m/s 756 mmHg 72%
22:00 +7°C° 0.3 mm 4 m/s 756 mmHg 76%
23:00 +6°C° 0.3 mm 4 m/s 756 mmHg 80%

31 Octobre, Samedi

Heure Température Précipitation Vent Pression Humidité
00:00 +7°C° 0.3 mm 3 m/s 755 mmHg 84%
01:00 +7°C° 0.2 mm 3 m/s 755 mmHg 84%
02:00 +7°C° 0.2 mm 2 m/s 755 mmHg 84%
03:00 +7°C° 0.2 mm 2 m/s 755 mmHg 84%
04:00 +7°C° 0 mm 2 m/s 755 mmHg 81%
05:00 +8°C° 0 mm 1 m/s 755 mmHg 79%
06:00 +8°C° 0 mm 1 m/s 755 mmHg 76%
07:00 +8°C° 0.1 mm 1 m/s 755 mmHg 74%
08:00 +8°C° 0.1 mm 1 m/s 755 mmHg 73%
09:00 +7°C° 0.1 mm 2 m/s 755 mmHg 72%
Voir plus

Nous avons besoin de votre consentement

Meteoprog et ses fournisseurs de services peuvent stocker et accéder à des données personnelles telles que des cookies, des identifiants d'appareils ou d'autres technologies similaires sur votre appareil et traiter ces données pour personnaliser le contenu et les publicités, ainsi que pour fournir des fonctionnalités de médias sociaux et analyser le trafic.

  • Stocker et/ou accéder à des informations sur votre appareil

    Des cookies, des identifiants d'appareils ou d'autres informations peuvent être stockés ou accessibles sur votre appareil aux fins indiquées ci-dessus.

  • Annonces et contenus personnalisés, mesure des annonces et des contenus, connaissance de l'audience et développement de produits

    Les annonces et le contenu peuvent être personnalisés en fonction d'un profil. D'autres données peuvent être ajoutées pour mieux personnaliser les annonces et le contenu. Les performances des publicités et du contenu peuvent être mesurées. Il est possible d'obtenir des informations sur le public qui a vu les publicités et le contenu. Ces données peuvent être utilisées pour développer ou améliorer l'expérience de l'utilisateur, les systèmes et les logiciels.

En cliquant sur "J'accepte", vous autorisez l'utilisation de cookies, des identifiants d'appareils, des balises web ou d'autres technologies similaires. Vos paramètres peuvent être modifiés dans le navigateur de votre appareil.

Dans certains cas, des intérêts légitimes peuvent être invoqués plutôt qu'un consentement. Vous pouvez en savoir plus à ce sujet dans notre Politique de confidentialité et de cookies.